Time,TemperatureF,DewpointF,PressureIn,WindDirection,WindDirectionDegrees,WindSpeedMPH,WindSpeedGustMPH,Humidity,HourlyPrecipIn,Conditions,Clouds,dailyrainin,SolarRadiationWatts/m^2,SoftwareType,DateUTC
2012-10-06 00:00:00,73.7,73.1,30.00,ENE,58,0.0,1.0,98,0.00,,---,0.00,0.00,VWS V14.01,2012-10-06 04:00:00,
2012-10-06 00:05:00,74.0,73.4,30.00,ENE,58,0.0,1.0,98,0.00,,---,0.00,0.00,VWS V14.01,2012-10-06 04:05:00,
2012-10-06 00:10:00,73.9,73.3,30.00,ENE,58,0.0,0.0,98,0.00,,---,0.00,0.00,VWS V14.01,2012-10-06 04:10:00,
2012-10-06 00:15:00,73.7,73.1,30.00,ENE,58,0.0,1.0,98,0.00,,---,0.00,0.00,VWS V14.01,2012-10-06 04:15:00,
2012-10-06 00:21:00,73.7,73.1,30.00,ENE,58,0.0,1.0,98,0.00,,---,0.00,0.00,VWS V14.01,2012-10-06 04:21:00,
2012-10-06 00:26:00,73.7,73.1,30.00,ENE,58,0.0,1.0,98,0.00,,---,0.00,0.00,VWS V14.01,2012-10-06 04:26:00,
2012-10-06 00:31:00,73.7,73.1,30.00,ENE,58,0.0,1.0,98,0.00,,---,0.00,0.00,VWS V14.01,2012-10-06 04:31:00,
2012-10-06 00:36:00,73.7,73.1,30.00,ENE,58,0.0,1.0,98,0.00,,---,0.00,0.00,VWS V14.01,2012-10-06 04:36:00,
2012-10-06 00:41:00,73.6,73.0,30.00,ENE,58,0.0,1.0,98,0.00,,---,0.00,0.00,VWS V14.01,2012-10-06 04:41:00,
2012-10-06 00:46:00,73.5,72.9,29.99,ENE,58,0.0,1.0,98,0.00,,---,0.00,0.00,VWS V14.01,2012-10-06 04:46:00,
2012-10-06 00:51:00,73.4,72.8,29.99,ENE,58,0.0,1.0,98,0.00,,---,0.00,0.00,VWS V14.01,2012-10-06 04:51:00,
2012-10-06 00:56:00,73.5,72.9,29.99,ENE,58,0.0,1.0,98,0.00,,---,0.00,0.00,VWS V14.01,2012-10-06 04:56:00,
2012-10-06 01:00:00,74.0,73.4,30.00,ENE,58,0.0,1.0,98,0.00,,---,0.00,0.00,VWS V14.01,2012-10-06 05:00:00,
2012-10-06 01:01:00,73.4,72.8,29.99,ENE,58,0.0,1.0,98,0.00,,---,0.00,0.00,VWS V14.01,2012-10-06 05:01:00,
2012-10-06 01:06:00,73.3,72.7,29.99,ENE,58,0.0,1.0,98,0.00,,---,0.00,0.00,VWS V14.01,2012-10-06 05:06:00,
2012-10-06 01:11:00,73.3,72.7,29.99,ENE,58,0.0,0.0,98,0.00,,---,0.00,0.00,VWS V14.01,2012-10-06 05:11:00,
2012-10-06 01:16:00,73.2,72.6,29.98,ENE,58,0.0,0.0,98,0.00,,---,0.00,0.00,VWS V14.01,2012-10-06 05:16:00,
2012-10-06 01:21:00,73.1,72.5,29.98,ENE,58,0.0,0.0,98,0.00,,---,0.00,0.00,VWS V14.01,2012-10-06 05:21:00,
2012-10-06 01:26:00,73.1,72.5,29.98,ENE,58,0.0,0.0,98,0.00,,---,0.00,0.00,VWS V14.01,2012-10-06 05:26:00,
2012-10-06 01:31:00,73.0,72.4,29.98,ENE,58,0.0,0.0,98,0.00,,---,0.00,0.00,VWS V14.01,2012-10-06 05:31:00,
2012-10-06 01:36:00,73.0,72.4,29.98,ENE,58,0.0,0.0,98,0.00,,---,0.00,0.00,VWS V14.01,2012-10-06 05:36:00,
2012-10-06 01:41:00,73.0,72.4,29.98,ENE,58,0.0,0.0,98,0.00,,---,0.00,0.00,VWS V14.01,2012-10-06 05:41:00,
2012-10-06 01:46:00,73.1,72.5,29.98,ENE,58,0.0,0.0,98,0.00,,---,0.00,0.00,VWS V14.01,2012-10-06 05:46:00,
2012-10-06 01:51:00,73.1,72.5,29.98,ENE,58,0.0,0.0,98,0.00,,---,0.00,0.00,VWS V14.01,2012-10-06 05:51:00,
2012-10-06 01:56:00,73.2,72.6,29.98,ENE,58,0.0,0.0,98,0.00,,---,0.00,0.00,VWS V14.01,2012-10-06 05:56:00,
2012-10-06 02:00:00,73.3,72.7,29.99,ENE,58,0.0,1.0,98,0.00,,---,0.00,0.00,VWS V14.01,2012-10-06 06:00:00,
2012-10-06 02:01:00,73.1,72.5,29.98,ENE,58,0.0,1.0,98,0.00,,---,0.00,0.00,VWS V14.01,2012-10-06 06:01:00,
2012-10-06 02:06:00,73.1,72.5,29.98,ENE,58,0.0,1.0,98,0.00,,---,0.00,0.00,VWS V14.01,2012-10-06 06:06:00,
2012-10-06 02:11:00,73.0,72.4,29.97,ENE,58,0.0,0.0,98,0.00,,---,0.00,0.00,VWS V14.01,2012-10-06 06:11:00,
2012-10-06 02:16:00,73.0,72.4,29.98,ENE,58,0.0,1.0,98,0.00,,---,0.00,0.00,VWS V14.01,2012-10-06 06:16:00,
2012-10-06 02:21:00,73.0,72.4,29.98,ENE,58,0.0,1.0,98,0.00,,---,0.00,0.00,VWS V14.01,2012-10-06 06:21:00,
2012-10-06 02:26:00,73.0,72.4,29.98,ENE,58,0.0,1.0,98,0.00,,---,0.00,0.00,VWS V14.01,2012-10-06 06:26:00,
2012-10-06 02:31:00,72.8,72.2,29.97,ENE,58,0.0,1.0,98,0.00,,---,0.00,0.00,VWS V14.01,2012-10-06 06:31:00,
2012-10-06 02:36:00,72.8,72.2,29.97,ENE,58,0.0,1.0,98,0.00,,---,0.00,0.00,VWS V14.01,2012-10-06 06:36:00,
2012-10-06 02:41:00,72.8,72.2,29.97,East,100,0.0,1.0,98,0.00,,---,0.00,0.00,VWS V14.01,2012-10-06 06:41:00,
2012-10-06 02:46:00,72.8,72.2,29.97,East,100,0.0,1.0,98,0.00,,---,0.00,0.00,VWS V14.01,2012-10-06 06:46:00,
2012-10-06 02:51:00,72.9,72.3,29.97,East,100,0.0,1.0,98,0.00,,---,0.00,0.00,VWS V14.01,2012-10-06 06:51:00,
2012-10-06 02:56:00,72.9,72.3,29.97,ENE,59,0.0,2.0,98,0.00,,---,0.00,0.00,VWS V14.01,2012-10-06 06:56:00,
2012-10-06 03:00:00,73.0,72.4,29.97,ENE,58,0.0,1.0,98,0.00,,---,0.00,0.00,VWS V14.01,2012-10-06 07:00:00,
2012-10-06 03:01:00,72.9,72.3,29.97,ENE,59,0.0,2.0,98,0.00,,---,0.00,0.00,VWS V14.01,2012-10-06 07:01:00,
2012-10-06 03:06:00,72.9,72.3,29.96,ENE,59,0.0,2.0,98,0.00,,---,0.00,0.00,VWS V14.01,2012-10-06 07:06:00,
2012-10-06 03:12:00,72.9,72.3,29.96,ENE,59,0.0,1.0,98,0.00,,---,0.00,0.00,VWS V14.01,2012-10-06 07:12:00,
2012-10-06 03:17:00,73.0,72.4,29.96,ENE,59,0.0,1.0,98,0.00,,---,0.00,0.00,VWS V14.01,2012-10-06 07:17:00,
2012-10-06 03:22:00,73.2,72.9,29.97,ENE,59,0.0,1.0,99,0.00,,---,0.00,0.00,VWS V14.01,2012-10-06 07:22:00,
2012-10-06 03:27:00,73.2,72.9,29.96,ENE,59,0.0,1.0,99,0.00,,---,0.00,0.00,VWS V14.01,2012-10-06 07:27:00,
2012-10-06 03:32:00,73.1,72.5,29.96,ENE,59,1.0,1.0,98,0.00,,---,0.00,0.00,VWS V14.01,2012-10-06 07:32:00,
2012-10-06 03:37:00,73.1,72.8,29.95,ENE,59,0.0,1.0,99,0.00,,---,0.00,0.00,VWS V14.01,2012-10-06 07:37:00,
2012-10-06 03:42:00,73.0,72.4,29.95,ENE,59,0.0,1.0,98,0.00,,---,0.00,0.00,VWS V14.01,2012-10-06 07:42:00,
2012-10-06 03:47:00,73.0,72.4,29.95,ENE,59,0.0,1.0,98,0.00,,---,0.00,0.00,VWS V14.01,2012-10-06 07:47:00,
2012-10-06 03:52:00,73.0,72.4,29.95,ENE,59,0.0,1.0,98,0.00,,---,0.00,0.00,VWS V14.01,2012-10-06 07:52:00,
2012-10-06 03:57:00,72.9,72.3,29.95,ENE,59,0.0,1.0,98,0.00,,---,0.00,0.00,VWS V14.01,2012-10-06 07:57:00,
2012-10-06 04:00:00,72.9,72.3,29.96,ENE,59,0.0,2.0,98,0.00,,---,0.00,0.00,VWS V14.01,2012-10-06 08:00:00,
2012-10-06 04:02:00,72.9,72.3,29.94,ENE,59,0.0,1.0,98,0.00,,---,0.00,0.00,VWS V14.01,2012-10-06 08:02:00,
2012-10-06 04:07:00,72.8,72.2,29.94,ENE,59,0.0,1.0,98,0.00,,---,0.00,0.00,VWS V14.01,2012-10-06 08:07:00,
2012-10-06 04:12:00,72.8,72.2,29.94,ENE,59,0.0,0.0,98,0.00,,---,0.00,0.00,VWS V14.01,2012-10-06 08:12:00,
2012-10-06 04:17:00,72.7,72.4,29.94,ENE,59,0.0,1.0,99,0.00,,---,0.00,0.00,VWS V14.01,2012-10-06 08:17:00,
2012-10-06 04:22:00,72.6,72.3,29.94,ENE,59,0.0,1.0,99,0.00,,---,0.00,0.00,VWS V14.01,2012-10-06 08:22:00,
2012-10-06 04:27:00,72.5,72.2,29.94,ENE,59,0.0,1.0,99,0.00,,---,0.00,0.00,VWS V14.01,2012-10-06 08:27:00,
2012-10-06 04:32:00,72.7,72.4,29.94,ENE,59,0.0,1.0,99,0.00,,---,0.00,0.00,VWS V14.01,2012-10-06 08:32:00,
2012-10-06 04:37:00,72.8,72.5,29.94,ENE,59,0.0,1.0,99,0.00,,---,0.00,0.00,VWS V14.01,2012-10-06 08:37:00,
2012-10-06 04:42:00,73.0,72.7,29.94,ENE,59,0.0,1.0,99,0.00,,---,0.00,0.00,VWS V14.01,2012-10-06 08:42:00,
2012-10-06 04:47:00,73.0,72.7,29.95,ENE,59,0.0,1.0,99,0.00,,---,0.00,0.00,VWS V14.01,2012-10-06 08:47:00,
2012-10-06 04:52:00,73.1,72.8,29.95,ENE,59,0.0,1.0,99,0.00,,---,0.00,0.00,VWS V14.01,2012-10-06 08:52:00,
2012-10-06 04:57:00,73.0,72.4,29.95,ENE,59,0.0,1.0,98,0.00,,---,0.00,0.00,VWS V14.01,2012-10-06 08:57:00,
2012-10-06 05:00:00,72.8,72.2,29.94,ENE,59,0.0,1.0,98,0.00,,---,0.00,0.00,VWS V14.01,2012-10-06 09:00:00,
2012-10-06 05:02:00,73.2,72.9,29.95,ENE,59,0.0,1.0,99,0.00,,---,0.00,0.00,VWS V14.01,2012-10-06 09:02:00,
2012-10-06 05:07:00,73.3,73.0,29.95,ENE,59,0.0,1.0,99,0.00,,---,0.00,0.00,VWS V14.01,2012-10-06 09:07:00,
2012-10-06 05:12:00,73.4,73.1,29.95,ENE,59,0.0,0.0,99,0.00,,---,0.00,0.00,VWS V14.01,2012-10-06 09:12:00,
2012-10-06 05:17:00,73.4,73.1,29.95,ENE,59,0.0,0.0,99,0.00,,---,0.00,0.00,VWS V14.01,2012-10-06 09:17:00,
2012-10-06 05:22:00,73.4,73.1,29.95,NW,319,0.0,1.0,99,0.00,,---,0.00,0.00,VWS V14.01,2012-10-06 09:22:00,
2012-10-06 05:27:00,73.2,72.9,29.95,NW,319,0.0,1.0,99,0.00,,---,0.00,0.00,VWS V14.01,2012-10-06 09:27:00,
2012-10-06 05:32:00,73.1,72.8,29.95,NW,319,0.0,1.0,99,0.00,,---,0.00,0.00,VWS V14.01,2012-10-06 09:32:00,
2012-10-06 05:37:00,73.0,72.4,29.95,North,351,0.0,1.0,98,0.00,,---,0.00,0.00,VWS V14.01,2012-10-06 09:37:00,
2012-10-06 05:42:00,73.0,72.4,29.95,ENE,64,1.0,2.0,98,0.00,,---,0.00,0.00,VWS V14.01,2012-10-06 09:42:00,
2012-10-06 05:47:00,73.1,72.8,29.95,ENE,64,0.0,2.0,99,0.00,,---,0.00,0.00,VWS V14.01,2012-10-06 09:47:00,
2012-10-06 05:52:00,73.2,72.9,29.95,ENE,64,0.0,2.0,99,0.00,,---,0.00,0.00,VWS V14.01,2012-10-06 09:52:00,
2012-10-06 05:57:00,73.1,72.8,29.95,ENE,64,0.0,2.0,99,0.00,,---,0.00,0.00,VWS V14.01,2012-10-06 09:57:00,
2012-10-06 06:00:00,73.3,73.0,29.95,ENE,59,0.0,1.0,99,0.00,,---,0.00,0.00,VWS V14.01,2012-10-06 10:00:00,
2012-10-06 06:03:00,73.2,72.9,29.95,ENE,64,0.0,2.0,99,0.00,,---,0.00,0.00,VWS V14.01,2012-10-06 10:03:00,
2012-10-06 06:08:00,73.1,72.8,29.95,ENE,64,0.0,2.0,99,0.00,,---,0.00,0.00,VWS V14.01,2012-10-06 10:08:00,
2012-10-06 06:13:00,73.1,72.8,29.95,ENE,64,0.0,2.0,99,0.00,,---,0.00,0.00,VWS V14.01,2012-10-06 10:13:00,
2012-10-06 06:18:00,73.1,72.8,29.95,NE,51,0.0,2.0,99,0.00,,---,0.00,0.00,VWS V14.01,2012-10-06 10:18:00,
2012-10-06 06:23:00,73.3,73.0,29.95,NE,50,0.0,2.0,99,0.00,,---,0.00,0.00,VWS V14.01,2012-10-06 10:23:00,
2012-10-06 06:28:00,73.1,72.8,29.95,NE,50,0.0,2.0,99,0.00,,---,0.00,0.00,VWS V14.01,2012-10-06 10:28:00,
2012-10-06 06:33:00,73.0,72.7,29.95,NE,50,0.0,2.0,99,0.00,,---,0.00,0.00,VWS V14.01,2012-10-06 10:33:00,
2012-10-06 06:38:00,73.0,72.7,29.95,NE,50,0.0,2.0,99,0.00,,---,0.00,0.00,VWS V14.01,2012-10-06 10:38:00,
2012-10-06 06:43:00,73.0,72.7,29.95,NE,50,0.0,2.0,99,0.00,,---,0.00,0.00,VWS V14.01,2012-10-06 10:43:00,
2012-10-06 06:48:00,73.0,72.7,29.95,NE,50,0.0,2.0,99,0.00,,---,0.00,0.00,VWS V14.01,2012-10-06 10:48:00,
2012-10-06 06:53:00,72.9,72.6,29.95,NE,50,1.0,2.0,99,0.00,,---,0.00,0.00,VWS V14.01,2012-10-06 10:53:00,
2012-10-06 06:58:00,72.9,72.6,29.95,NE,50,0.0,2.0,99,0.00,,---,0.00,0.00,VWS V14.01,2012-10-06 10:58:00,
2012-10-06 07:00:00,73.1,72.8,29.95,ENE,64,0.0,2.0,99,0.00,,---,0.00,0.00,VWS V14.01,2012-10-06 11:00:00,
2012-10-06 07:03:00,72.9,72.6,29.95,NE,50,0.0,2.0,99,0.00,,---,0.00,0.00,VWS V14.01,2012-10-06 11:03:00,
2012-10-06 07:08:00,73.0,72.7,29.95,NE,50,0.0,2.0,99,0.00,,---,0.00,0.00,VWS V14.01,2012-10-06 11:08:00,
2012-10-06 07:13:00,73.0,72.7,29.95,East,92,0.0,2.0,99,0.00,,---,0.00,0.00,VWS V14.01,2012-10-06 11:13:00,
2012-10-06 07:18:00,73.0,72.7,29.96,East,92,0.0,2.0,99,0.00,,---,0.00,0.00,VWS V14.01,2012-10-06 11:18:00,
2012-10-06 07:23:00,73.0,72.7,29.96,East,92,1.0,2.0,99,0.00,,---,0.00,0.00,VWS V14.01,2012-10-06 11:23:00,
2012-10-06 07:28:00,73.0,72.7,29.96,East,85,0.0,2.0,99,0.00,,---,0.00,0.00,VWS V14.01,2012-10-06 11:28:00,
2012-10-06 07:33:00,73.0,72.7,29.96,East,85,1.0,2.0,99,0.00,,---,0.00,5.00,VWS V14.01,2012-10-06 11:33:00,
2012-10-06 07:38:00,73.1,72.8,29.96,East,85,0.0,2.0,99,0.00,,---,0.00,11.00,VWS V14.01,2012-10-06 11:38:00,
2012-10-06 07:43:00,73.1,72.8,29.96,East,85,0.0,2.0,99,0.00,,---,0.00,14.00,VWS V14.01,2012-10-06 11:43:00,
2012-10-06 07:48:00,73.1,72.8,29.96,East,85,0.0,2.0,99,0.00,,---,0.00,19.00,VWS V14.01,2012-10-06 11:48:00,
2012-10-06 07:53:00,73.2,72.9,29.96,East,85,1.0,2.0,99,0.00,,---,0.00,23.00,VWS V14.01,2012-10-06 11:53:00,
2012-10-06 07:58:00,73.3,73.0,29.96,East,85,0.0,2.0,99,0.00,,---,0.00,33.00,VWS V14.01,2012-10-06 11:58:00,
2012-10-06 08:00:00,73.0,72.7,29.95,NE,50,0.0,2.0,99,0.00,,---,0.00,0.00,VWS V14.01,2012-10-06 12:00:00,
2012-10-06 08:03:00,73.3,73.0,29.97,East,85,0.0,2.0,99,0.00,,---,0.00,40.00,VWS V14.01,2012-10-06 12:03:00,
2012-10-06 08:08:00,73.4,73.1,29.97,ENE,62,1.0,4.0,99,0.00,,---,0.00,49.00,VWS V14.01,2012-10-06 12:08:00,
2012-10-06 08:13:00,73.5,73.2,29.97,East,85,2.0,3.0,99,0.00,,---,0.00,32.00,VWS V14.01,2012-10-06 12:13:00,
2012-10-06 08:18:00,73.6,73.3,29.97,East,85,0.0,3.0,99,0.00,,---,0.00,63.00,VWS V14.01,2012-10-06 12:18:00,
2012-10-06 08:23:00,73.7,73.4,29.97,East,87,0.0,3.0,99,0.00,,---,0.00,93.00,VWS V14.01,2012-10-06 12:23:00,
2012-10-06 08:28:00,74.0,73.7,29.97,East,87,0.0,3.0,99,0.00,,---,0.00,114.00,VWS V14.01,2012-10-06 12:28:00,
2012-10-06 08:33:00,74.2,73.9,29.97,East,87,0.0,3.0,99,0.00,,---,0.00,141.00,VWS V14.01,2012-10-06 12:33:00,
2012-10-06 08:38:00,74.4,74.1,29.97,South,181,0.0,3.0,99,0.00,,---,0.00,151.00,VWS V14.01,2012-10-06 12:38:00,
2012-10-06 08:43:00,74.5,74.2,29.98,South,181,0.0,3.0,99,0.00,,---,0.00,158.00,VWS V14.01,2012-10-06 12:43:00,
2012-10-06 08:48:00,74.9,74.6,29.98,South,181,0.0,3.0,99,0.00,,---,0.00,151.00,VWS V14.01,2012-10-06 12:48:00,
2012-10-06 08:53:00,74.7,74.4,29.97,South,181,0.0,3.0,99,0.00,,---,0.00,199.00,VWS V14.01,2012-10-06 12:53:00,
2012-10-06 08:58:00,74.9,74.6,29.98,South,181,1.0,3.0,99,0.00,,---,0.00,188.00,VWS V14.01,2012-10-06 12:58:00,
2012-10-06 09:00:00,73.4,73.1,29.97,ENE,62,0.0,4.0,99,0.00,,---,0.00,49.00,VWS V14.01,2012-10-06 13:00:00,
2012-10-06 09:03:00,75.4,75.1,29.98,South,181,1.0,3.0,99,0.00,,---,0.00,200.00,VWS V14.01,2012-10-06 13:03:00,
2012-10-06 09:08:00,75.4,75.1,29.98,SSE,147,0.0,3.0,99,0.00,,---,0.00,174.00,VWS V14.01,2012-10-06 13:08:00,
2012-10-06 09:13:00,75.5,75.2,29.98,SE,127,0.0,4.0,99,0.00,,---,0.00,151.00,VWS V14.01,2012-10-06 13:13:00,
2012-10-06 09:18:00,76.0,75.7,29.98,SSE,168,1.0,4.0,99,0.00,,---,0.00,102.00,VWS V14.01,2012-10-06 13:18:00,
2012-10-06 09:23:00,76.0,75.7,29.98,East,96,1.0,4.0,99,0.00,,---,0.00,234.00,VWS V14.01,2012-10-06 13:23:00,
2012-10-06 09:28:00,76.0,75.7,29.98,ENE,74,1.0,4.0,99,0.00,,---,0.00,186.00,VWS V14.01,2012-10-06 13:28:00,
2012-10-06 09:33:00,76.2,75.6,29.98,East,89,2.0,4.0,98,0.00,,---,0.00,183.00,VWS V14.01,2012-10-06 13:33:00,
2012-10-06 09:38:00,76.5,76.2,29.98,South,190,0.0,4.0,99,0.00,,---,0.00,267.00,VWS V14.01,2012-10-06 13:38:00,
2012-10-06 09:43:00,76.5,75.9,29.98,East,85,1.0,5.0,98,0.00,,---,0.00,267.00,VWS V14.01,2012-10-06 13:43:00,
2012-10-06 09:48:00,76.3,75.7,29.98,NE,39,0.0,5.0,98,0.00,,---,0.00,95.00,VWS V14.01,2012-10-06 13:48:00,
2012-10-06 09:53:00,76.3,75.7,29.98,ENE,76,1.0,5.0,98,0.00,,---,0.00,185.00,VWS V14.01,2012-10-06 13:53:00,
2012-10-06 09:58:00,77.1,76.5,29.98,ENE,76,0.0,5.0,98,0.00,,---,0.00,236.00,VWS V14.01,2012-10-06 13:58:00,
2012-10-06 10:00:00,75.4,75.1,29.98,SSE,147,0.0,3.0,99,0.00,,---,0.00,174.00,VWS V14.01,2012-10-06 14:00:00,
2012-10-06 10:03:00,77.4,76.5,29.98,NE,43,2.0,5.0,97,0.00,,---,0.00,181.00,VWS V14.01,2012-10-06 14:03:00,
2012-10-06 10:08:00,77.6,76.7,29.98,ESE,110,0.0,0.0,97,0.00,,---,0.00,169.00,VWS V14.01,2012-10-06 14:08:00,
2012-10-06 10:13:00,77.4,76.5,29.98,NNW,339,0.0,1.0,97,0.00,,---,0.00,204.00,VWS V14.01,2012-10-06 14:13:00,
2012-10-06 10:18:00,77.3,76.4,29.98,NNW,339,0.0,1.0,97,0.00,,---,0.00,204.00,VWS V14.01,2012-10-06 14:18:00,
2012-10-06 10:23:00,77.3,76.4,29.98,NNW,339,0.0,1.0,97,0.00,,---,0.00,232.00,VWS V14.01,2012-10-06 14:23:00,
2012-10-06 10:28:00,77.7,76.5,29.98,East,90,0.0,1.0,96,0.00,,---,0.00,311.00,VWS V14.01,2012-10-06 14:28:00,
2012-10-06 10:33:00,77.9,76.4,29.98,East,87,0.0,1.0,95,0.00,,---,0.00,311.00,VWS V14.01,2012-10-06 14:33:00,
2012-10-06 10:38:00,78.3,76.8,29.98,NNW,332,1.0,2.0,95,0.00,,---,0.00,271.00,VWS V14.01,2012-10-06 14:38:00,
2012-10-06 10:43:00,78.8,77.2,29.98,ENE,73,2.0,3.0,95,0.00,,---,0.00,343.00,VWS V14.01,2012-10-06 14:43:00,
2012-10-06 10:48:00,79.7,78.2,29.98,NNE,16,0.0,4.0,95,0.00,,---,0.00,812.00,VWS V14.01,2012-10-06 14:48:00,
2012-10-06 10:54:00,80.5,78.0,29.98,NE,38,0.0,4.0,92,0.00,,---,0.00,944.00,VWS V14.01,2012-10-06 14:54:00,
2012-10-06 10:58:00,80.7,78.2,29.98,SSE,162,0.0,4.0,92,0.00,,---,0.00,898.00,VWS V14.01,2012-10-06 14:58:00,
2012-10-06 11:00:00,77.6,76.7,29.97,ESE,110,0.0,5.0,97,0.00,,---,0.00,169.00,VWS V14.01,2012-10-06 15:00:00,
2012-10-06 11:04:00,80.3,77.8,29.98,NE,56,0.0,4.0,92,0.00,,---,0.00,490.00,VWS V14.01,2012-10-06 15:04:00,
2012-10-06 11:09:00,80.5,77.6,29.98,West,262,0.0,0.0,91,0.00,,---,0.00,436.00,VWS V14.01,2012-10-06 15:09:00,
2012-10-06 11:14:00,80.8,77.6,29.98,SSE,168,0.0,2.0,90,0.00,,---,0.00,283.00,VWS V14.01,2012-10-06 15:14:00,
2012-10-06 11:19:00,80.9,77.7,29.98,South,180,0.0,3.0,90,0.00,,---,0.00,657.00,VWS V14.01,2012-10-06 15:19:00,
2012-10-06 11:24:00,81.3,77.8,29.98,South,183,2.0,3.0,89,0.00,,---,0.00,325.00,VWS V14.01,2012-10-06 15:24:00,
2012-10-06 11:29:00,82.2,77.9,29.98,SW,229,0.0,3.0,87,0.00,,---,0.00,940.00,VWS V14.01,2012-10-06 15:29:00,
2012-10-06 11:34:00,82.6,77.6,29.98,ESE,102,4.0,4.0,85,0.00,,---,0.00,598.00,VWS V14.01,2012-10-06 15:34:00,
2012-10-06 11:39:00,82.5,77.2,29.97,SE,128,0.0,4.0,84,0.00,,---,0.00,872.00,VWS V14.01,2012-10-06 15:39:00,
2012-10-06 11:44:00,82.8,77.5,29.97,ENE,59,3.0,4.0,84,0.00,,---,0.00,884.00,VWS V14.01,2012-10-06 15:44:00,
2012-10-06 11:49:00,83.0,77.3,29.98,SE,126,1.0,5.0,83,0.00,,---,0.00,733.00,VWS V14.01,2012-10-06 15:49:00,
2012-10-06 11:54:00,84.0,77.9,29.98,WSW,256,2.0,5.0,82,0.00,,---,0.00,796.00,VWS V14.01,2012-10-06 15:54:00,
2012-10-06 11:59:00,83.9,77.1,29.98,South,187,0.0,5.0,80,0.00,,---,0.00,770.00,VWS V14.01,2012-10-06 15:59:00,
2012-10-06 12:00:00,80.5,77.6,29.98,West,262,0.0,4.0,91,0.00,,---,0.00,436.00,VWS V14.01,2012-10-06 16:00:00,
2012-10-06 12:04:00,84.0,76.8,29.97,NNW,329,1.0,5.0,79,0.00,,---,0.00,907.00,VWS V14.01,2012-10-06 16:04:00,
2012-10-06 12:09:00,84.3,76.7,29.97,NNE,15,1.0,1.0,78,0.00,,---,0.00,907.00,VWS V14.01,2012-10-06 16:09:00,
2012-10-06 12:14:00,84.7,77.1,29.97,North,354,1.0,3.0,78,0.00,,---,0.00,942.00,VWS V14.01,2012-10-06 16:14:00,
2012-10-06 12:19:00,85.2,77.6,29.96,West,260,0.0,3.0,78,0.00,,---,0.00,974.00,VWS V14.01,2012-10-06 16:19:00,
2012-10-06 12:24:00,84.7,77.5,29.96,SW,221,2.0,3.0,79,0.00,,---,0.00,271.00,VWS V14.01,2012-10-06 16:24:00,
2012-10-06 12:29:00,84.7,76.7,29.96,East,92,0.0,3.0,77,0.00,,---,0.00,262.00,VWS V14.01,2012-10-06 16:29:00,
2012-10-06 12:34:00,83.7,77.6,29.96,NNE,30,0.0,3.0,82,0.00,,---,0.00,237.00,VWS V14.01,2012-10-06 16:34:00,
2012-10-06 12:39:00,83.8,76.2,29.96,NNE,30,0.0,3.0,78,0.00,,---,0.00,260.00,VWS V14.01,2012-10-06 16:39:00,
2012-10-06 12:44:00,84.1,76.5,29.96,North,10,0.0,3.0,78,0.00,,---,0.00,267.00,VWS V14.01,2012-10-06 16:44:00,
2012-10-06 12:49:00,84.9,77.3,29.95,ENE,61,0.0,3.0,78,0.00,,---,0.00,257.00,VWS V14.01,2012-10-06 16:49:00,
2012-10-06 12:54:00,84.1,76.1,29.95,North,360,0.0,3.0,77,0.00,,---,0.00,209.00,VWS V14.01,2012-10-06 16:54:00,
2012-10-06 12:59:00,83.4,77.0,29.95,NE,49,0.0,3.0,81,0.00,,---,0.00,225.00,VWS V14.01,2012-10-06 16:59:00,
2012-10-06 13:00:00,84.3,77.8,29.97,North,358,0.0,5.0,81,0.00,,---,0.00,907.00,VWS V14.01,2012-10-06 17:00:00,
2012-10-06 13:04:00,84.9,78.8,29.94,NW,316,0.0,3.0,82,0.00,,---,0.00,225.00,VWS V14.01,2012-10-06 17:04:00,
2012-10-06 13:09:00,85.3,77.3,29.95,NNW,336,0.0,1.0,77,0.00,,---,0.00,926.00,VWS V14.01,2012-10-06 17:09:00,
2012-10-06 13:14:00,84.5,76.5,29.94,North,349,0.0,4.0,77,0.00,,---,0.00,411.00,VWS V14.01,2012-10-06 17:14:00,
2012-10-06 13:19:00,84.0,76.8,29.94,North,349,0.0,4.0,79,0.00,,---,0.00,148.00,VWS V14.01,2012-10-06 17:19:00,
2012-10-06 13:24:00,83.6,76.0,29.94,NNW,342,3.0,5.0,78,0.00,,---,0.00,132.00,VWS V14.01,2012-10-06 17:24:00,
2012-10-06 13:29:00,83.8,75.8,29.94,NNW,347,3.0,7.0,77,0.00,,---,0.00,204.00,VWS V14.01,2012-10-06 17:29:00,
2012-10-06 13:34:00,84.5,76.9,29.93,NW,315,2.0,7.0,78,0.00,,---,0.00,313.00,VWS V14.01,2012-10-06 17:34:00,
2012-10-06 13:39:00,85.2,76.4,29.93,NW,322,2.0,7.0,75,0.00,,---,0.00,125.00,VWS V14.01,2012-10-06 17:39:00,
2012-10-06 13:44:00,84.3,75.5,29.93,NNW,329,0.0,7.0,75,0.00,,---,0.00,176.00,VWS V14.01,2012-10-06 17:44:00,
2012-10-06 13:49:00,83.8,76.6,29.93,NW,316,1.0,7.0,79,0.00,,---,0.00,146.00,VWS V14.01,2012-10-06 17:49:00,
2012-10-06 13:54:00,83.7,75.3,29.92,NNW,336,1.0,7.0,76,0.00,,---,0.00,197.00,VWS V14.01,2012-10-06 17:54:00,
2012-10-06 13:59:00,83.5,75.9,29.93,NNW,328,0.0,7.0,78,0.00,,---,0.00,216.00,VWS V14.01,2012-10-06 17:59:00,
2012-10-06 14:00:00,85.4,77.4,29.95,NNW,336,1.0,3.0,77,0.00,,---,0.00,926.00,VWS V14.01,2012-10-06 18:00:00,
2012-10-06 14:04:00,83.6,75.2,29.93,NW,324,0.0,7.0,76,0.00,,---,0.00,169.00,VWS V14.01,2012-10-06 18:04:00,
2012-10-06 14:09:00,83.7,74.9,29.92,NNW,329,0.0,0.0,75,0.00,,---,0.00,162.00,VWS V14.01,2012-10-06 18:09:00,
2012-10-06 14:14:00,83.8,75.8,29.92,North,352,1.0,3.0,77,0.00,,---,0.00,155.00,VWS V14.01,2012-10-06 18:14:00,
2012-10-06 14:19:00,83.6,75.6,29.91,NNW,346,0.0,3.0,77,0.00,,---,0.00,132.00,VWS V14.01,2012-10-06 18:19:00,
2012-10-06 14:24:00,83.4,75.8,29.91,NNW,346,3.0,3.0,78,0.00,,---,0.00,141.00,VWS V14.01,2012-10-06 18:24:00,
2012-10-06 14:29:00,83.3,75.7,29.91,NW,314,0.0,3.0,78,0.00,,---,0.00,130.00,VWS V14.01,2012-10-06 18:29:00,
2012-10-06 14:34:00,83.1,75.5,29.91,NNW,337,0.0,3.0,78,0.00,,---,0.00,132.00,VWS V14.01,2012-10-06 18:34:00,
2012-10-06 14:39:00,83.1,75.2,29.91,South,189,5.0,5.0,77,0.00,,---,0.00,132.00,VWS V14.01,2012-10-06 18:39:00,
2012-10-06 14:44:00,82.6,75.4,29.91,SSW,193,0.0,5.0,79,0.00,,---,0.00,128.00,VWS V14.01,2012-10-06 18:44:00,
2012-10-06 14:50:00,82.2,76.2,29.90,SSW,198,3.0,5.0,82,0.00,,---,0.00,144.00,VWS V14.01,2012-10-06 18:50:00,
2012-10-06 14:54:00,82.2,76.2,29.90,South,176,2.0,5.0,82,0.00,,---,0.00,160.00,VWS V14.01,2012-10-06 18:54:00,
2012-10-06 15:00:00,82.2,75.8,29.90,SSW,203,3.0,5.0,81,0.00,,---,0.00,178.00,VWS V14.01,2012-10-06 19:00:00,
2012-10-06 15:05:00,82.1,75.7,29.90,SSW,203,2.0,5.0,81,0.00,,---,0.00,183.00,VWS V14.01,2012-10-06 19:05:00,
2012-10-06 15:10:00,82.3,76.3,29.90,South,188,0.0,0.0,82,0.00,,---,0.00,165.00,VWS V14.01,2012-10-06 19:10:00,
2012-10-06 15:15:00,82.0,76.3,29.90,South,188,0.0,1.0,83,0.00,,---,0.00,174.00,VWS V14.01,2012-10-06 19:15:00,
2012-10-06 15:20:00,82.1,76.1,29.90,South,188,1.0,1.0,82,0.00,,---,0.00,186.00,VWS V14.01,2012-10-06 19:20:00,
2012-10-06 15:25:00,82.6,76.6,29.90,South,188,0.0,2.0,82,0.00,,---,0.00,422.00,VWS V14.01,2012-10-06 19:25:00,
2012-10-06 15:30:00,83.6,76.4,29.89,South,188,1.0,2.0,79,0.00,,---,0.00,475.00,VWS V14.01,2012-10-06 19:30:00,
2012-10-06 15:35:00,84.2,76.2,29.89,SE,143,0.0,3.0,77,0.00,,---,0.00,534.00,VWS V14.01,2012-10-06 19:35:00,
2012-10-06 15:40:00,84.2,76.6,29.89,SE,143,0.0,3.0,78,0.00,,---,0.00,260.00,VWS V14.01,2012-10-06 19:40:00,
2012-10-06 15:45:00,84.4,76.4,29.88,SE,143,0.0,3.0,77,0.00,,---,0.00,338.00,VWS V14.01,2012-10-06 19:45:00,
2012-10-06 15:50:00,85.0,76.6,29.88,South,181,0.0,3.0,76,0.00,,---,0.00,257.00,VWS V14.01,2012-10-06 19:50:00,
2012-10-06 15:55:00,84.9,76.1,29.88,South,181,0.0,3.0,75,0.00,,---,0.00,629.00,VWS V14.01,2012-10-06 19:55:00,
2012-10-06 16:00:00,84.9,76.5,29.88,SW,227,0.0,3.0,76,0.00,,---,0.00,575.00,VWS V14.01,2012-10-06 20:00:00,
2012-10-06 16:05:00,84.5,76.5,29.88,SW,235,0.0,3.0,77,0.00,,---,0.00,575.00,VWS V14.01,2012-10-06 20:05:00,
2012-10-06 16:10:00,83.9,76.3,29.88,NW,311,0.0,1.0,78,0.00,,---,0.00,84.00,VWS V14.01,2012-10-06 20:10:00,
2012-10-06 16:15:00,83.3,76.5,29.88,North,6,0.0,5.0,80,0.00,,---,0.00,86.00,VWS V14.01,2012-10-06 20:15:00,
2012-10-06 16:20:00,82.8,77.1,29.89,WNW,291,0.0,5.0,83,0.00,,---,0.00,102.00,VWS V14.01,2012-10-06 20:20:00,
2012-10-06 16:25:00,82.0,77.1,29.88,NW,314,1.0,5.0,85,0.00,,---,0.00,118.00,VWS V14.01,2012-10-06 20:25:00,
2012-10-06 16:30:00,80.9,77.4,29.87,NW,314,0.0,5.0,89,0.00,,---,0.00,118.00,VWS V14.01,2012-10-06 20:30:00,
2012-10-06 16:35:00,80.2,77.3,29.87,NW,314,0.0,5.0,91,0.00,,---,0.00,125.00,VWS V14.01,2012-10-06 20:35:00,
2012-10-06 16:40:00,80.3,77.8,29.87,NW,314,0.0,5.0,92,0.00,,---,0.00,132.00,VWS V14.01,2012-10-06 20:40:00,
2012-10-06 16:45:00,80.2,77.3,29.87,SSW,208,1.0,5.0,91,0.00,,---,0.00,128.00,VWS V14.01,2012-10-06 20:45:00,
2012-10-06 16:50:00,80.5,78.0,29.87,SSW,208,0.0,5.0,92,0.00,,---,0.00,155.00,VWS V14.01,2012-10-06 20:50:00,
2012-10-06 16:55:00,80.7,77.8,29.87,SSW,208,0.0,5.0,91,0.00,,---,0.00,179.00,VWS V14.01,2012-10-06 20:55:00,
2012-10-06 17:00:00,81.4,78.5,29.87,SW,225,1.0,5.0,91,0.00,,---,0.00,185.00,VWS V14.01,2012-10-06 21:00:00,
2012-10-06 17:05:00,81.4,76.8,29.87,SW,225,0.0,5.0,86,0.00,,---,0.00,199.00,VWS V14.01,2012-10-06 21:05:00,
2012-10-06 17:10:00,81.9,77.7,29.88,SW,225,0.0,0.0,87,0.00,,---,0.00,172.00,VWS V14.01,2012-10-06 21:10:00,
2012-10-06 17:15:00,82.0,77.8,29.87,SW,225,0.0,0.0,87,0.00,,---,0.00,172.00,VWS V14.01,2012-10-06 21:15:00,
2012-10-06 17:20:00,82.2,76.2,29.87,SW,226,0.0,1.0,82,0.00,,---,0.00,149.00,VWS V14.01,2012-10-06 21:20:00,
2012-10-06 17:25:00,82.5,77.9,29.87,SW,226,0.0,1.0,86,0.00,,---,0.00,118.00,VWS V14.01,2012-10-06 21:25:00,
2012-10-06 17:30:00,82.4,78.1,29.87,SW,226,0.0,1.0,87,0.00,,---,0.00,84.00,VWS V14.01,2012-10-06 21:30:00,
2012-10-06 17:35:00,82.0,77.1,29.87,SW,226,0.0,1.0,85,0.00,,---,0.00,97.00,VWS V14.01,2012-10-06 21:35:00,
2012-10-06 17:41:00,81.9,77.3,29.87,SW,226,0.0,1.0,86,0.00,,---,0.00,98.00,VWS V14.01,2012-10-06 21:41:00,
2012-10-06 17:46:00,81.8,77.6,29.87,SW,226,0.0,1.0,87,0.00,,---,0.00,105.00,VWS V14.01,2012-10-06 21:46:00,
2012-10-06 17:51:00,81.5,77.6,29.87,SW,226,0.0,1.0,88,0.00,,---,0.00,91.00,VWS V14.01,2012-10-06 21:51:00,
2012-10-06 17:56:00,81.5,77.9,29.88,SW,226,0.0,1.0,89,0.00,,---,0.00,83.00,VWS V14.01,2012-10-06 21:56:00,
2012-10-06 18:00:00,81.7,77.1,29.87,SW,225,0.0,5.0,86,0.00,,---,0.00,183.00,VWS V14.01,2012-10-06 22:00:00,
2012-10-06 18:01:00,81.2,77.0,29.88,SW,226,0.0,1.0,87,0.00,,---,0.00,83.00,VWS V14.01,2012-10-06 22:01:00,
2012-10-06 18:06:00,81.3,76.7,29.88,SW,226,0.0,1.0,86,0.00,,---,0.00,90.00,VWS V14.01,2012-10-06 22:06:00,
2012-10-06 18:11:00,81.3,77.1,29.88,SW,226,0.0,0.0,87,0.00,,---,0.00,83.00,VWS V14.01,2012-10-06 22:11:00,
2012-10-06 18:16:00,81.2,77.3,29.88,SW,226,0.0,0.0,88,0.00,,---,0.00,79.00,VWS V14.01,2012-10-06 22:16:00,
2012-10-06 18:21:00,81.2,77.0,29.88,SW,226,0.0,0.0,87,0.00,,---,0.00,74.00,VWS V14.01,2012-10-06 22:21:00,
2012-10-06 18:26:00,81.8,77.6,29.88,SW,226,0.0,0.0,87,0.00,,---,0.00,69.00,VWS V14.01,2012-10-06 22:26:00,
2012-10-06 18:31:00,82.0,77.4,29.88,SW,226,0.0,0.0,86,0.00,,---,0.00,69.00,VWS V14.01,2012-10-06 22:31:00,
2012-10-06 18:36:00,81.9,77.3,29.88,SW,226,0.0,0.0,86,0.00,,---,0.00,58.00,VWS V14.01,2012-10-06 22:36:00,
2012-10-06 18:41:00,81.6,76.7,29.88,SW,226,0.0,0.0,85,0.00,,---,0.00,49.00,VWS V14.01,2012-10-06 22:41:00,
2012-10-06 18:46:00,81.4,75.7,29.88,North,358,0.0,1.0,83,0.00,,---,0.00,40.00,VWS V14.01,2012-10-06 22:46:00,
2012-10-06 18:51:00,81.3,75.3,29.88,North,11,0.0,2.0,82,0.00,,---,0.00,33.00,VWS V14.01,2012-10-06 22:51:00,
2012-10-06 18:56:00,81.0,75.0,29.88,North,11,0.0,2.0,82,0.00,,---,0.00,30.00,VWS V14.01,2012-10-06 22:56:00,
2012-10-06 19:00:00,81.4,77.5,29.88,SW,226,0.0,1.0,88,0.00,,---,0.00,88.00,VWS V14.01,2012-10-06 23:00:00,
2012-10-06 19:01:00,81.1,74.7,29.89,NNW,334,1.0,2.0,81,0.00,,---,0.00,21.00,VWS V14.01,2012-10-06 23:01:00,
2012-10-06 19:06:00,81.0,75.3,29.89,NW,325,0.0,2.0,83,0.00,,---,0.00,14.00,VWS V14.01,2012-10-06 23:06:00,
2012-10-06 19:11:00,80.3,75.0,29.90,NW,326,0.0,0.0,84,0.00,,---,0.00,7.00,VWS V14.01,2012-10-06 23:11:00,
2012-10-06 19:16:00,79.6,75.1,29.90,NW,326,0.0,0.0,86,0.00,,---,0.00,0.00,VWS V14.01,2012-10-06 23:16:00,
2012-10-06 19:21:00,79.3,75.1,29.90,NNW,331,0.0,1.0,87,0.00,,---,0.00,0.00,VWS V14.01,2012-10-06 23:21:00,
2012-10-06 19:26:00,78.9,74.7,29.90,NNW,331,0.0,1.0,87,0.00,,---,0.00,0.00,VWS V14.01,2012-10-06 23:26:00,
2012-10-06 19:31:00,78.6,74.4,29.91,NNW,331,0.0,1.0,87,0.00,,---,0.00,0.00,VWS V14.01,2012-10-06 23:31:00,
2012-10-06 19:36:00,78.5,74.3,29.91,NNW,331,0.0,1.0,87,0.00,,---,0.00,0.00,VWS V14.01,2012-10-06 23:36:00,
2012-10-06 19:41:00,78.5,74.3,29.92,NNE,27,0.0,1.0,87,0.00,,---,0.00,0.00,VWS V14.01,2012-10-06 23:41:00,
2012-10-06 19:46:00,78.5,74.3,29.92,NNE,30,0.0,1.0,87,0.00,,---,0.00,0.00,VWS V14.01,2012-10-06 23:46:00,
2012-10-06 19:51:00,78.4,73.9,29.92,NE,39,1.0,1.0,86,0.00,,---,0.00,0.00,VWS V14.01,2012-10-06 23:51:00,
2012-10-06 19:56:00,78.5,74.0,29.93,ENE,60,0.0,3.0,86,0.00,,---,0.00,0.00,VWS V14.01,2012-10-06 23:56:00,
2012-10-06 20:00:00,80.6,75.0,29.89,NW,326,0.0,2.0,83,0.00,,---,0.00,9.00,VWS V14.01,2012-10-07 00:00:00,
2012-10-06 20:01:00,78.8,73.9,29.93,ENE,60,0.0,4.0,85,0.00,,---,0.00,0.00,VWS V14.01,2012-10-07 00:01:00,
2012-10-06 20:06:00,78.8,73.9,29.93,NE,41,0.0,4.0,85,0.00,,---,0.00,0.00,VWS V14.01,2012-10-07 00:06:00,
2012-10-06 20:11:00,78.7,73.8,29.93,North,356,0.0,2.0,85,0.00,,---,0.00,0.00,VWS V14.01,2012-10-07 00:11:00,
2012-10-06 20:16:00,78.5,73.6,29.93,North,356,0.0,2.0,85,0.00,,---,0.00,0.00,VWS V14.01,2012-10-07 00:16:00,
2012-10-06 20:21:00,78.2,73.3,29.93,NNW,341,0.0,2.0,85,0.00,,---,0.00,0.00,VWS V14.01,2012-10-07 00:21:00,
2012-10-06 20:26:00,78.0,72.4,29.93,ENE,70,4.0,7.0,83,0.00,,---,0.00,0.00,VWS V14.01,2012-10-07 00:26:00,
2012-10-06 20:31:00,78.0,72.1,29.94,NE,34,1.0,7.0,82,0.00,,---,0.00,0.00,VWS V14.01,2012-10-07 00:31:00,
2012-10-06 20:36:00,77.9,72.0,29.94,ENE,58,1.0,7.0,82,0.00,,---,0.00,0.00,VWS V14.01,2012-10-07 00:36:00,
2012-10-06 20:41:00,77.8,71.9,29.94,NE,56,1.0,7.0,82,0.00,,---,0.00,0.00,VWS V14.01,2012-10-07 00:41:00,
2012-10-06 20:46:00,77.6,72.4,29.95,East,89,5.0,7.0,84,0.00,,---,0.00,0.00,VWS V14.01,2012-10-07 00:46:00,
2012-10-06 20:51:00,77.5,72.3,29.96,ENE,71,3.0,7.0,84,0.00,,---,0.00,0.00,VWS V14.01,2012-10-07 00:51:00,
2012-10-06 20:56:00,77.4,72.5,29.97,East,91,0.0,7.0,85,0.00,,---,0.00,0.00,VWS V14.01,2012-10-07 00:56:00,
2012-10-06 21:00:00,78.8,73.9,29.93,NNE,18,0.0,4.0,85,0.00,,---,0.00,0.00,VWS V14.01,2012-10-07 01:00:00,
2012-10-06 21:01:00,77.2,72.3,29.97,NNE,15,0.0,13.0,85,0.00,,---,0.00,0.00,VWS V14.01,2012-10-07 01:01:00,
2012-10-06 21:06:00,76.6,70.7,29.97,ESE,106,4.0,14.0,82,0.00,,---,0.00,0.00,VWS V14.01,2012-10-07 01:06:00,
2012-10-06 21:11:00,76.2,70.7,29.98,North,10,1.0,8.0,83,0.00,,---,0.00,0.00,VWS V14.01,2012-10-07 01:11:00,
2012-10-06 21:16:00,74.8,70.0,29.98,SSE,164,4.0,10.0,85,0.00,,---,0.00,0.00,VWS V14.01,2012-10-07 01:16:00,
2012-10-06 21:21:00,73.5,69.7,29.98,SE,135,2.0,12.0,88,0.00,,---,0.00,0.00,VWS V14.01,2012-10-07 01:21:00,
2012-10-06 21:26:00,72.8,69.7,29.97,ESE,109,3.0,12.0,90,0.00,,---,0.00,0.00,VWS V14.01,2012-10-07 01:26:00,
2012-10-06 21:31:00,72.5,69.7,29.97,SSW,194,0.0,12.0,91,0.00,,---,0.00,0.00,VWS V14.01,2012-10-07 01:31:00,
2012-10-06 21:36:00,72.3,69.8,29.97,SE,144,6.0,12.0,92,0.00,,---,0.00,0.00,VWS V14.01,2012-10-07 01:36:00,
2012-10-06 21:41:00,72.4,70.3,29.96,SE,129,4.0,12.0,93,0.00,,---,0.00,0.00,VWS V14.01,2012-10-07 01:41:00,
2012-10-06 21:47:00,72.4,70.6,29.96,South,187,3.0,12.0,94,0.00,,---,0.00,0.00,VWS V14.01,2012-10-07 01:47:00,
2012-10-06 21:52:00,72.3,70.5,29.95,SE,146,4.0,12.0,94,0.00,,---,0.00,0.00,VWS V14.01,2012-10-07 01:52:00,
2012-10-06 21:57:00,72.4,70.9,29.95,SSW,203,2.0,12.0,95,0.00,,---,0.00,0.00,VWS V14.01,2012-10-07 01:57:00,
2012-10-06 22:00:00,76.5,70.6,29.98,East,89,4.0,14.0,82,0.00,,---,0.00,0.00,VWS V14.01,2012-10-07 02:00:00,
2012-10-06 22:02:00,72.4,70.9,29.95,SSW,198,2.0,12.0,95,0.00,,---,0.00,0.00,VWS V14.01,2012-10-07 02:02:00,
2012-10-06 22:07:00,72.4,70.9,29.95,South,174,0.0,12.0,95,0.00,,---,0.00,0.00,VWS V14.01,2012-10-07 02:07:00,
2012-10-06 22:12:00,72.4,71.2,29.95,South,174,0.0,0.0,96,0.00,,---,0.00,0.00,VWS V14.01,2012-10-07 02:12:00,
2012-10-06 22:17:00,72.4,71.2,29.95,South,174,0.0,0.0,96,0.00,,---,0.00,0.00,VWS V14.01,2012-10-07 02:17:00,
2012-10-06 22:22:00,72.4,71.2,29.95,WSW,237,1.0,2.0,96,0.00,,---,0.00,0.00,VWS V14.01,2012-10-07 02:22:00,
2012-10-06 22:27:00,72.4,71.2,29.95,SW,229,2.0,4.0,96,0.00,,---,0.00,0.00,VWS V14.01,2012-10-07 02:27:00,
2012-10-06 22:32:00,72.6,71.4,29.94,WSW,237,1.0,4.0,96,0.00,,---,0.00,0.00,VWS V14.01,2012-10-07 02:32:00,
2012-10-06 22:37:00,72.7,71.5,29.95,SSW,203,0.0,4.0,96,0.00,,---,0.00,0.00,VWS V14.01,2012-10-07 02:37:00,
2012-10-06 22:42:00,72.8,71.6,29.95,WSW,237,0.0,4.0,96,0.00,,---,0.00,0.00,VWS V14.01,2012-10-07 02:42:00,
2012-10-06 22:47:00,72.8,71.6,29.95,North,356,0.0,4.0,96,0.00,,---,0.00,0.00,VWS V14.01,2012-10-07 02:47:00,
2012-10-06 22:52:00,72.7,71.5,29.95,North,358,0.0,4.0,96,0.00,,---,0.00,0.00,VWS V14.01,2012-10-07 02:52:00,
2012-10-06 22:57:00,72.6,71.7,29.95,North,358,0.0,4.0,97,0.00,,---,0.00,0.00,VWS V14.01,2012-10-07 02:57:00,
2012-10-06 23:00:00,72.4,70.9,29.94,South,174,0.0,12.0,95,0.00,,---,0.00,0.00,VWS V14.01,2012-10-07 03:00:00,
2012-10-06 23:02:00,72.5,71.6,29.94,North,358,0.0,4.0,97,0.00,,---,0.00,0.00,VWS V14.01,2012-10-07 03:02:00,
2012-10-06 23:07:00,72.4,71.5,29.95,North,358,0.0,4.0,97,0.00,,---,0.00,0.00,VWS V14.01,2012-10-07 03:07:00,
2012-10-06 23:12:00,72.2,71.3,29.95,North,358,0.0,0.0,97,0.00,,---,0.00,0.00,VWS V14.01,2012-10-07 03:12:00,
2012-10-06 23:17:00,72.1,71.2,29.95,North,358,0.0,0.0,97,0.00,,---,0.00,0.00,VWS V14.01,2012-10-07 03:17:00,
2012-10-06 23:22:00,72.1,71.2,29.95,North,358,0.0,1.0,97,0.00,,---,0.00,0.00,VWS V14.01,2012-10-07 03:22:00,
2012-10-06 23:27:00,72.1,71.2,29.95,North,358,0.0,1.0,97,0.00,,---,0.00,0.00,VWS V14.01,2012-10-07 03:27:00,
2012-10-06 23:32:00,72.1,71.2,29.96,North,358,0.0,1.0,97,0.00,,---,0.00,0.00,VWS V14.01,2012-10-07 03:32:00,
2012-10-06 23:37:00,72.2,71.3,29.96,North,358,0.0,1.0,97,0.00,,---,0.00,0.00,VWS V14.01,2012-10-07 03:37:00,
2012-10-06 23:42:00,72.1,71.2,29.96,North,358,0.0,1.0,97,0.00,,---,0.00,0.00,VWS V14.01,2012-10-07 03:42:00,
2012-10-06 23:47:00,72.0,71.1,29.96,North,358,1.0,1.0,97,0.00,,---,0.00,0.00,VWS V14.01,2012-10-07 03:47:00,
2012-10-06 23:52:00,72.0,71.1,29.96,North,358,0.0,1.0,97,0.00,,---,0.00,0.00,VWS V14.01,2012-10-07 03:52:00,
2012-10-06 23:57:00,72.0,71.4,29.96,North,358,0.0,1.0,98,0.00,,---,0.00,0.00,VWS V14.01,2012-10-07 03:57:00,